TimeEST,TemperatureF,Dew PointF,Humidity,Sea Level PressureIn,VisibilityMPH,Wind Direction,Wind SpeedMPH,Gust SpeedMPH,PrecipitationIn,Events,Conditions,WindDirDegrees,DateUTC
12:53 AM,28.0,8.1,43,30.28,10.0,West,3.5,-,N/A,,Clear,260,2013-01-22 05:53:00
1:53 AM,28.0,3.9,36,30.28,10.0,WNW,4.6,-,N/A,,Overcast,300,2013-01-22 06:53:00
2:53 AM,27.0,3.9,37,30.29,10.0,Calm,Calm,-,N/A,,Overcast,0,2013-01-22 07:53:00
3:53 AM,25.0,6.1,45,30.30,10.0,Calm,Calm,-,N/A,,Partly Cloudy,0,2013-01-22 08:53:00
4:53 AM,24.1,3.0,40,30.32,10.0,Calm,Calm,-,N/A,,Partly Cloudy,0,2013-01-22 09:53:00
5:53 AM,21.9,5.0,48,30.33,10.0,Calm,Calm,-,N/A,,Clear,0,2013-01-22 10:53:00
6:53 AM,21.0,6.1,53,30.36,10.0,Calm,Calm,-,N/A,,Clear,0,2013-01-22 11:53:00
7:53 AM,21.0,5.0,50,30.38,10.0,Calm,Calm,-,N/A,,Clear,0,2013-01-22 12:53:00
8:53 AM,25.0,3.0,39,30.39,10.0,Calm,Calm,-,N/A,,Clear,0,2013-01-22 13:53:00
9:53 AM,25.0,1.0,36,30.41,10.0,Calm,Calm,-,N/A,,Clear,0,2013-01-22 14:53:00
10:53 AM,26.1,-0.9,31,30.43,10.0,SE,3.5,-,N/A,,Clear,130,2013-01-22 15:53:00
11:53 AM,28.9,-4.0,24,30.42,10.0,Calm,Calm,-,N/A,,Clear,0,2013-01-22 16:53:00
12:53 PM,30.9,-2.9,23,30.38,10.0,SSE,6.9,-,N/A,,Clear,150,2013-01-22 17:53:00
1:53 PM,32.0,-2.9,22,30.35,10.0,SSE,5.8,-,N/A,,Clear,160,2013-01-22 18:53:00
2:53 PM,34.0,-4.0,20,30.34,10.0,Calm,Calm,-,N/A,,Clear,0,2013-01-22 19:53:00
3:53 PM,34.0,-4.0,20,30.35,10.0,SSW,6.9,-,N/A,,Clear,200,2013-01-22 20:53:00
4:53 PM,32.0,-8.0,18,30.35,10.0,Variable,5.8,-,N/A,,Clear,0,2013-01-22 21:53:00
5:53 PM,32.0,-9.9,16,30.37,10.0,West,8.1,-,N/A,,Mostly Cloudy,280,2013-01-22 22:53:00
6:53 PM,30.9,-9.9,17,30.39,10.0,West,4.6,-,N/A,,Mostly Cloudy,280,2013-01-22 23:53:00
7:53 PM,30.0,-6.0,21,30.39,10.0,West,5.8,-,N/A,,Mostly Cloudy,280,2013-01-23 00:53:00
8:53 PM,30.0,-4.0,23,30.39,10.0,WNW,3.5,-,N/A,,Overcast,290,2013-01-23 01:53:00
9:53 PM,28.9,-2.9,25,30.39,10.0,Variable,4.6,-,N/A,,Overcast,0,2013-01-23 02:53:00
10:53 PM,28.9,-2.9,25,30.39,10.0,Calm,Calm,-,N/A,,Overcast,0,2013-01-23 03:53:00
11:53 PM,28.9,-0.9,28,30.40,10.0,WSW,3.5,-,N/A,,Overcast,250,2013-01-23 04:53:00